Location: Little Suamico
(44.7175°N, 88.0093°W)
Time: 17:35:43
(UTC+00:00)

ISS - Pass Details

Date: 27 April 2021
Orbit: 417 x 422 km, 51.6° (Epoch: 17 May)

Event Time Altitude Azimuth Distance (km) Brightness Sun altitude
Exits shadow 09:12:44 16° 171° (S) 1,190 -1.8 -15.5°
Maximum altitude 09:14:14 21° 136° (SE) 1,008 -1.8 -15.2°
Drops below altitude 10° 09:16:50 10° 85° (E) 1,504 -0.1 -14.9°
Sets 09:19:16 0° 69° (ENE) 2,374 1.6 -14.5°
